Powrót do katalogu

YAOGAN-30 AD

AktywnyMilitariaVLEO
NORAD 49026·PAYLOAD·🇨🇳 China

Wystrzelony Jul 19, 2021 z Xichang Satellite Launch Center

Loading…

Następne Przeloty (najbliższe 24 godziny)

TLE

ŚwieżeSource: Space-Track

Epoka: Sep 14, 2026, 00:10 UTC

1 49026U 21065A   26257.00758049 -.00000554  00000-0 -38142-4 0  9998
2 49026  34.9925  91.5749 0004454 214.4892 145.5528 15.03005420282010

Śledź YAOGAN-30 AD w czasie rzeczywistym z AllMySat

Download on the App Store